COSMOS 1275 DEB, 12757

Orbit data source: Space-Track

COSMOS 1275 DEB, 12757 is space debris in LEO originally from a launch on Thu, 04 Jun 1981 UTC launched from the Plesetsk Missile And Space Complex (PKMTR). Debris objects in space refer to the collection of defunct objects orbiting the Earth. Examples of debris include non-operational satellites, rocket bodies, and fragments generated from explosions, collisions, or faulty payload assembly.

Loading next visibility...
Identifier
12757, 1981-053DA
Orbit
LEO
Country
Flag of CISCIS
Related business
Manufacturer
Unknown
Mission
Spacecraft
Bus & Motor
Unknown
Mass
Unknown
Launch date (UTC)
1981-06-04 (45 years ago)
Launch vehicle
Unknown
Launch site
Plesetsk Missile And Space Complex (PKMTR)
Object type
Payload
Rocket body
Debris
Shape & HBR
Unknown shape, 0.1 m
Radar Cross Section
Small (<0.1 m²)

Expand to show TLE details & history
Last TLE update: 17 hours ago

TLE from 17 hours ago
0 COSMOS 1275 DEB
1 12757U 81053DA  26035.26032159  .00000773  00000-0  68140-3 0  9992
2 12757  82.9509 314.7445 0059912  46.2548  78.2490 13.83245813235031
Epoch: 2026-02-04T06:14Z
TLE epoch observation values (Epoch: 2026-02-04T06:14:51.785Z)
Latitude
54.31106°
Longitude
-103.26157°
Altitude
952.651 km
Speed
7.385 km/s
True Right ascension
08h 19m 32s
True Declination
54° 09' 08"
Sunlit
Object was in full shadow at epoch
Visualization orbit readout
Latitude
Unknown
Longitude
Unknown
Altitude
Unknown
Speed
Unknown
Apparent Right ascension
Unknown
Apparent Declination
Unknown
Sunlit
N/A
Visualization observer readout
Local Sidereal Time
01:40:50
Azimuth
Unknown
Elevation
Unknown
Doppler factor
Unknown
Orbital elements
Apogee altitude
993.435 km
Perigee altitude
905.632 km
Semi-major axis
7,327.671 km
Eccentricity
0.00599
Inclination
82.9509°
RAAN
314.7445°
Arg. of periapsis
46.2548°
True anomaly
78.92216°
Mean anomaly
78.249°
Eccentric anomaly
78.58548°
Mean motion
3.46014 °/min
Orbital period
104.04 mins
BSTAR
0.0006814
Loading maneuver chart data...
Computing Atmospheric mass density...

Documentation

Showing up to 5 results
|